Regional Weather Roundup
Issued by NWS

Home | Current Version | Previous Version | Graphics & Text | Print | Product List | Glossary On
Versions: 1 2 3 4 5 6 7 8 9 10 11 12 13 14 15 16 17 18 19 20 21 22 23 24 25 26 27
000
ASUS45 KCYS 221910
RWRWY

WYOMING REGIONAL WEATHER ROUNDUP
NATIONAL WEATHER SERVICE CHEYENNE WY
100 PM MDT TUE APR 22 2014

NOTE:  "FAIR" INDICATES FEW OR NO CLOUDS BELOW 12,000 FEET
WITH NO SIGNIFICANT WEATHER AND/OR OBSTRUCTIONS TO VISIBILITY.

WYZ001-222000-
YELLOWSTONE NATIONAL PARK

CITY           SKY/WX    TMP DP  RH WIND       PRES   REMARKS
LK YELLOWSTONE   N/A     47  34  60 E6        29.81F
W YELLOWSTONE  NOT AVBL

$$
WYZ002>013-054>058-071-098>099-222000-
NORTHERN WYOMING

CITY           SKY/WX    TMP DP  RH WIND       PRES   REMARKS
JACKSON        SUNNY     54  37  54 CALM      29.77F
CODY           MOSUNNY   66  34  30 SE13G21   29.68F
GREYBULL       MOSUNNY   70  28  21 S14       29.66F
WORLAND        MOSUNNY   67  33  28 S6        29.68F
SHERIDAN         N/A     63  30  29 SW18G25     N/A
BUFFALO        CLOUDY    63  34  33 E5        29.74F
GILLETTE       CLOUDY    65  39  38 S9        29.72F
HULETT         CLOUDY    68  36  30 W5        29.76
NEWCASTLE      FAIR      63  34  34 SE13      29.76

$$
WYZ014>020-022>026-101>103-222000-
CENTRAL WYOMING

CITY           SKY/WX    TMP DP  RH WIND       PRES   REMARKS
BIG PINEY      CLOUDY    59  31  34 SW28G35   29.83F
PINEDALE       CLOUDY    59  30  33 S20G29    29.81F
DUBOIS         MOCLDY    59  30  33 W13G23    29.78F
LANDER         PTSUNNY   64  30  27 E9        29.71F
RIVERTON       PTSUNNY   63  26  24 E9        29.73F
CASPER         CLOUDY    70  33  25 SW10      29.76F
DOUGLAS        CLOUDY    61  38  42 SE9       29.79F

$$
WYZ021-027>030-104>119-222000-
SOUTHERN WYOMING

CITY           SKY/WX    TMP DP  RH WIND       PRES   REMARKS
EVANSTON       PTSUNNY   62  28  27 SW25G35   29.79
KEMMERER       CLOUDY    59  25  27 SW23G29   29.82F
FORT BRIDGER   FAIR      66  24  20 SW20G30   29.83F
ROCK SPRINGS   CLOUDY    65  28  24 S28G38    29.79F
DIXON          MOCLDY    69  32  26 SW18G31   29.88F
RAWLINS        CLOUDY    69  29  22 SW29G38   29.86F
SARATOGA       LGT RAIN  63  32  31 S14G20    29.91F
LARAMIE        CLOUDY    59  31  34 W26G33    29.94S
CHEYENNE       PTSUNNY   68  31  25 S21       29.90F
TORRINGTON     CLOUDY    71  42  35 S16       29.79F
PINE BLUFFS    FAIR      73  34  23 S15G23    29.86F

$$



USA.gov is the U.S. government's official web portal to all federal, state and local government web resources and services.